Time,TemperatureF,DewpointF,PressureIn,WindDirection,WindDirectionDegrees,WindSpeedMPH,WindSpeedGustMPH,Humidity,HourlyPrecipIn,Conditions,Clouds,dailyrainin,SoftwareType,DateUTC
2013-03-25 00:00:00,69.3,47.1,29.50,South,172,7.2,8.1,45,0.00,,---,0.00,VWS V14.01,2013-03-25 04:00:00,
2013-03-25 00:05:00,69.3,47.1,29.50,South,178,3.1,6.3,45,0.00,,---,0.00,VWS V14.01,2013-03-25 04:05:00,
2013-03-25 00:10:00,69.1,47.0,29.50,SSW,210,4.0,5.4,45,0.00,,---,0.00,VWS V14.01,2013-03-25 04:10:00,
2013-03-25 00:15:00,68.9,46.8,29.50,South,169,4.0,4.0,45,0.00,,---,0.00,VWS V14.01,2013-03-25 04:15:00,
2013-03-25 00:20:00,68.7,47.2,29.50,SW,222,3.1,3.1,46,0.00,,---,0.00,VWS V14.01,2013-03-25 04:20:00,
2013-03-25 00:25:00,68.5,47.1,29.50,WNW,301,5.4,5.4,46,0.00,,---,0.00,VWS V14.01,2013-03-25 04:25:00,
2013-03-25 00:30:00,68.4,47.5,29.53,West,260,7.2,7.2,47,0.00,,---,0.00,VWS V14.01,2013-03-25 04:30:00,
2013-03-25 00:35:00,68.4,47.5,29.53,South,184,2.7,4.9,47,0.00,,---,0.00,VWS V14.01,2013-03-25 04:35:00,
2013-03-25 00:40:00,68.2,47.3,29.53,South,179,2.2,3.6,47,0.00,,---,0.00,VWS V14.01,2013-03-25 04:40:00,
2013-03-25 00:45:00,68.0,47.8,29.53,West,263,2.7,3.6,48,0.00,,---,0.00,VWS V14.01,2013-03-25 04:45:00,
2013-03-25 00:50:00,68.0,47.8,29.53,NW,314,4.0,6.3,48,0.00,,---,0.00,VWS V14.01,2013-03-25 04:50:00,
2013-03-25 00:55:00,68.0,47.8,29.53,SW,214,3.6,3.6,48,0.00,,---,0.00,VWS V14.01,2013-03-25 04:55:00,
2013-03-25 01:00:00,67.6,48.0,29.53,WNW,298,5.4,5.4,49,0.00,,---,0.00,VWS V14.01,2013-03-25 05:00:00,
2013-03-25 01:05:00,67.6,48.0,29.53,West,262,3.1,5.4,49,0.00,,---,0.00,VWS V14.01,2013-03-25 05:05:00,
2013-03-25 01:10:00,67.6,48.6,29.53,WSW,243,2.7,4.5,50,0.00,,---,0.00,VWS V14.01,2013-03-25 05:10:00,
2013-03-25 01:15:00,67.5,48.4,29.53,NNW,341,3.1,4.9,50,0.00,,---,0.00,VWS V14.01,2013-03-25 05:15:00,
2013-03-25 01:20:00,67.5,49.5,29.53,SW,219,2.2,3.6,52,0.00,,---,0.00,VWS V14.01,2013-03-25 05:20:00,
2013-03-25 01:25:00,67.3,49.3,29.53,SSW,212,0.0,2.7,52,0.00,,---,0.00,VWS V14.01,2013-03-25 05:25:00,
2013-03-25 01:30:00,67.1,49.7,29.53,South,187,3.1,3.1,54,0.00,,---,0.00,VWS V14.01,2013-03-25 05:30:00,
2013-03-25 01:35:00,66.9,50.0,29.53,West,271,3.1,3.1,55,0.00,,---,0.00,VWS V14.01,2013-03-25 05:35:00,
2013-03-25 01:40:00,66.7,50.4,29.53,ESE,105,3.1,3.1,56,0.00,,---,0.00,VWS V14.01,2013-03-25 05:40:00,
2013-03-25 01:45:00,66.6,50.7,29.53,WNW,297,2.7,2.7,57,0.00,,---,0.00,VWS V14.01,2013-03-25 05:45:00,
2013-03-25 01:50:00,66.6,51.2,29.53,West,274,0.0,3.1,58,0.00,,---,0.00,VWS V14.01,2013-03-25 05:50:00,
2013-03-25 01:55:00,66.4,51.5,29.53,SSW,192,2.2,2.2,59,0.00,,---,0.00,VWS V14.01,2013-03-25 05:55:00,
2013-03-25 02:00:00,66.2,51.8,29.56,South,179,3.6,3.6,60,0.00,,---,0.00,VWS V14.01,2013-03-25 06:00:00,
2013-03-25 02:05:00,66.2,51.8,29.56,NW,321,4.0,4.0,60,0.00,,---,0.00,VWS V14.01,2013-03-25 06:05:00,
2013-03-25 02:10:00,66.0,52.2,29.56,WNW,286,0.0,3.1,61,0.00,,---,0.00,VWS V14.01,2013-03-25 06:10:00,
2013-03-25 02:15:00,66.0,52.6,29.56,NNW,332,3.1,3.1,62,0.00,,---,0.00,VWS V14.01,2013-03-25 06:15:00,
2013-03-25 02:20:00,66.0,52.6,29.56,West,270,5.8,9.6,62,0.00,,---,0.00,VWS V14.01,2013-03-25 06:20:00,
2013-03-25 02:25:00,66.0,52.6,29.56,WNW,286,6.3,6.3,62,0.00,,---,0.00,VWS V14.01,2013-03-25 06:25:00,
2013-03-25 02:30:00,66.0,52.2,29.56,South,181,3.1,3.6,61,0.00,,---,0.00,VWS V14.01,2013-03-25 06:30:00,
2013-03-25 02:35:00,66.0,52.6,29.56,SW,233,2.7,3.6,62,0.00,,---,0.00,VWS V14.01,2013-03-25 06:35:00,
2013-03-25 02:40:00,66.0,52.6,29.56,NW,310,3.6,4.0,62,0.00,,---,0.00,VWS V14.01,2013-03-25 06:40:00,
2013-03-25 02:45:00,66.0,52.2,29.56,West,271,2.7,2.7,61,0.00,,---,0.00,VWS V14.01,2013-03-25 06:45:00,
2013-03-25 02:50:00,66.0,52.2,29.56,WNW,300,2.7,3.1,61,0.00,,---,0.00,VWS V14.01,2013-03-25 06:50:00,
2013-03-25 02:55:00,66.0,51.7,29.56,West,277,0.0,3.1,60,0.00,,---,0.00,VWS V14.01,2013-03-25 06:55:00,
2013-03-25 03:00:00,66.0,51.7,29.56,WNW,298,3.6,3.6,60,0.00,,---,0.00,VWS V14.01,2013-03-25 07:00:00,
2013-03-25 03:05:00,66.0,51.7,29.56,WNW,286,8.1,8.1,60,0.00,,---,0.00,VWS V14.01,2013-03-25 07:05:00,
2013-03-25 03:10:00,66.0,51.2,29.56,NW,307,3.6,3.6,59,0.00,,---,0.00,VWS V14.01,2013-03-25 07:10:00,
2013-03-25 03:15:00,65.8,49.5,29.59,NW,313,3.6,3.6,56,0.00,,---,0.00,VWS V14.01,2013-03-25 07:15:00,
2013-03-25 03:20:00,65.8,46.3,29.59,WNW,288,4.0,4.9,49,0.00,,---,0.00,VWS V14.01,2013-03-25 07:20:00,
2013-03-25 03:25:00,65.3,38.2,29.59,WNW,291,4.0,7.6,37,0.00,,---,0.00,VWS V14.01,2013-03-25 07:25:00,
2013-03-25 03:30:00,64.6,32.8,29.59,West,276,6.3,6.3,30,0.00,,---,0.00,VWS V14.01,2013-03-25 07:30:00,
2013-03-25 03:35:00,63.9,31.4,29.59,WNW,287,3.6,6.3,29,0.00,,---,0.00,VWS V14.01,2013-03-25 07:35:00,
2013-03-25 03:40:00,63.3,32.6,29.59,WNW,300,0.0,2.7,31,0.00,,---,0.00,VWS V14.01,2013-03-25 07:40:00,
2013-03-25 03:45:00,63.0,33.1,29.59,NW,314,3.6,7.2,33,0.00,,---,0.00,VWS V14.01,2013-03-25 07:45:00,
2013-03-25 03:50:00,62.6,32.8,29.59,WNW,300,8.7,8.7,33,0.00,,---,0.00,VWS V14.01,2013-03-25 07:50:00,
2013-03-25 03:55:00,62.1,29.8,29.59,NW,325,5.8,5.8,29,0.00,,---,0.00,VWS V14.01,2013-03-25 07:55:00,
2013-03-25 04:00:00,61.7,29.5,29.59,NW,309,5.4,5.4,29,0.00,,---,0.00,VWS V14.01,2013-03-25 08:00:00,
2013-03-25 04:05:00,61.3,30.9,29.62,WNW,297,2.7,8.1,31,0.00,,---,0.00,VWS V14.01,2013-03-25 08:05:00,
2013-03-25 04:10:00,60.8,29.6,29.62,NNE,26,3.6,8.1,30,0.00,,---,0.00,VWS V14.01,2013-03-25 08:10:00,
2013-03-25 04:15:00,60.4,26.6,29.62,WNW,291,8.3,8.3,27,0.00,,---,0.00,VWS V14.01,2013-03-25 08:15:00,
2013-03-25 04:20:00,60.1,26.3,29.62,WNW,298,5.4,6.3,27,0.00,,---,0.00,VWS V14.01,2013-03-25 08:20:00,
2013-03-25 04:25:00,59.5,24.9,29.62,NNW,330,2.7,3.6,26,0.00,,---,0.00,VWS V14.01,2013-03-25 08:25:00,
2013-03-25 04:30:00,59.2,24.6,29.62,NW,306,6.3,6.3,26,0.00,,---,0.00,VWS V14.01,2013-03-25 08:30:00,
2013-03-25 04:35:00,58.8,25.2,29.62,WNW,297,3.1,3.1,27,0.00,,---,0.00,VWS V14.01,2013-03-25 08:35:00,
2013-03-25 04:40:00,58.3,24.7,29.62,West,279,3.1,3.1,27,0.00,,---,0.00,VWS V14.01,2013-03-25 08:40:00,
2013-03-25 04:45:00,57.9,24.4,29.62,NW,320,2.2,5.4,27,0.00,,---,0.00,VWS V14.01,2013-03-25 08:45:00,
2013-03-25 04:50:00,57.7,25.2,29.65,WNW,297,4.0,7.6,28,0.00,,---,0.00,VWS V14.01,2013-03-25 08:50:00,
2013-03-25 04:55:00,57.6,25.0,29.65,WSW,257,4.0,7.6,28,0.00,,---,0.00,VWS V14.01,2013-03-25 08:55:00,
2013-03-25 05:00:00,57.4,24.9,29.65,NW,322,3.1,5.4,28,0.00,,---,0.00,VWS V14.01,2013-03-25 09:00:00,
2013-03-25 05:05:00,57.2,24.7,29.65,NW,312,6.7,8.1,28,0.00,,---,0.00,VWS V14.01,2013-03-25 09:05:00,
2013-03-25 05:10:00,57.0,25.4,29.65,WNW,285,7.6,7.6,29,0.00,,---,0.00,VWS V14.01,2013-03-25 09:10:00,
2013-03-25 05:15:00,56.8,24.4,29.65,NNW,332,4.0,5.4,28,0.00,,---,0.00,VWS V14.01,2013-03-25 09:15:00,
2013-03-25 05:20:00,56.7,24.2,29.65,NW,319,4.0,4.0,28,0.00,,---,0.00,VWS V14.01,2013-03-25 09:20:00,
2013-03-25 05:25:00,56.5,24.1,29.65,West,261,5.8,8.1,28,0.00,,---,0.00,VWS V14.01,2013-03-25 09:25:00,
2013-03-25 05:30:00,56.3,23.9,29.65,NW,324,3.6,5.4,28,0.00,,---,0.00,VWS V14.01,2013-03-25 09:30:00,
2013-03-25 05:35:00,56.1,24.6,29.65,NW,311,4.9,4.9,29,0.00,,---,0.00,VWS V14.01,2013-03-25 09:35:00,
2013-03-25 05:40:00,55.9,24.5,29.65,WNW,294,4.0,5.8,29,0.00,,---,0.00,VWS V14.01,2013-03-25 09:40:00,
2013-03-25 05:45:00,55.9,25.3,29.65,NW,320,3.6,9.6,30,0.00,,---,0.00,VWS V14.01,2013-03-25 09:45:00,
2013-03-25 05:50:00,55.8,23.5,29.65,WNW,297,6.3,6.3,28,0.00,,---,0.00,VWS V14.01,2013-03-25 09:50:00,
2013-03-25 05:55:00,55.6,24.2,29.65,NNW,345,3.1,5.8,29,0.00,,---,0.00,VWS V14.01,2013-03-25 09:55:00,
2013-03-25 06:00:00,55.4,24.0,29.65,West,277,5.4,5.4,29,0.00,,---,0.00,VWS V14.01,2013-03-25 10:00:00,
2013-03-25 06:05:00,55.2,25.5,29.65,NW,312,3.1,5.4,31,0.00,,---,0.00,VWS V14.01,2013-03-25 10:05:00,
2013-03-25 06:10:00,55.0,25.4,29.65,West,280,6.3,6.3,31,0.00,,---,0.00,VWS V14.01,2013-03-25 10:10:00,
2013-03-25 06:15:00,54.9,24.4,29.65,West,266,4.0,5.4,30,0.00,,---,0.00,VWS V14.01,2013-03-25 10:15:00,
2013-03-25 06:20:00,54.9,25.2,29.65,NW,319,2.2,6.3,31,0.00,,---,0.00,VWS V14.01,2013-03-25 10:20:00,
2013-03-25 06:25:00,54.7,24.2,29.65,NNW,346,6.3,6.3,30,0.00,,---,0.00,VWS V14.01,2013-03-25 10:25:00,
2013-03-25 06:30:00,54.5,24.9,29.68,NW,324,10.5,10.5,31,0.00,,---,0.00,VWS V14.01,2013-03-25 10:30:00,
2013-03-25 06:35:00,54.3,23.9,29.68,NNW,337,5.4,5.4,30,0.00,,---,0.00,VWS V14.01,2013-03-25 10:35:00,
2013-03-25 06:40:00,54.1,24.6,29.68,WSW,250,5.8,5.8,31,0.00,,---,0.00,VWS V14.01,2013-03-25 10:40:00,
2013-03-25 06:45:00,54.1,25.4,29.68,WNW,286,5.8,6.3,33,0.00,,---,0.00,VWS V14.01,2013-03-25 10:45:00,
2013-03-25 06:50:00,54.0,27.4,29.68,NW,306,2.7,4.0,36,0.00,,---,0.00,VWS V14.01,2013-03-25 10:50:00,
2013-03-25 06:55:00,53.8,25.8,29.68,NW,310,4.0,6.3,34,0.00,,---,0.00,VWS V14.01,2013-03-25 10:55:00,
2013-03-25 07:01:00,53.6,26.4,29.68,West,266,4.9,4.9,35,0.00,,---,0.00,VWS V14.01,2013-03-25 11:01:00,
2013-03-25 07:06:00,53.4,27.6,29.68,NW,320,3.1,4.0,37,0.00,,---,0.00,VWS V14.01,2013-03-25 11:06:00,
2013-03-25 07:11:00,53.4,28.3,29.68,WNW,301,2.7,3.6,38,0.00,,---,0.00,VWS V14.01,2013-03-25 11:11:00,
2013-03-25 07:16:00,53.2,28.2,29.71,WNW,290,6.3,6.3,38,0.00,,---,0.00,VWS V14.01,2013-03-25 11:16:00,
2013-03-25 07:21:00,53.1,28.0,29.71,North,350,3.6,3.6,38,0.00,,---,0.00,VWS V14.01,2013-03-25 11:21:00,
2013-03-25 07:26:00,52.9,27.9,29.71,WNW,299,7.2,7.2,38,0.00,,---,0.00,VWS V14.01,2013-03-25 11:26:00,
2013-03-25 07:31:00,52.9,28.5,29.71,WSW,240,6.3,6.3,39,0.00,,---,0.00,VWS V14.01,2013-03-25 11:31:00,
2013-03-25 07:36:00,52.7,28.4,29.71,NW,325,5.4,5.4,39,0.00,,---,0.00,VWS V14.01,2013-03-25 11:36:00,
2013-03-25 07:41:00,52.5,28.2,29.71,NW,311,0.0,4.9,39,0.00,,---,0.00,VWS V14.01,2013-03-25 11:41:00,
2013-03-25 07:46:00,52.5,28.2,29.71,NW,304,3.1,3.6,39,0.00,,---,0.00,VWS V14.01,2013-03-25 11:46:00,
2013-03-25 07:51:00,52.5,28.9,29.71,North,357,3.6,4.0,40,0.00,,---,0.00,VWS V14.01,2013-03-25 11:51:00,
2013-03-25 07:56:00,52.5,28.9,29.71,NW,307,5.8,5.8,40,0.00,,---,0.00,VWS V14.01,2013-03-25 11:56:00,
2013-03-25 08:01:00,52.3,28.7,29.74,WNW,285,4.9,7.6,40,0.00,,---,0.00,VWS V14.01,2013-03-25 12:01:00,
2013-03-25 08:06:00,52.2,28.5,29.74,NW,321,3.6,3.6,40,0.00,,---,0.00,VWS V14.01,2013-03-25 12:06:00,
2013-03-25 08:11:00,52.2,28.5,29.74,WNW,299,4.0,5.8,40,0.00,,---,0.00,VWS V14.01,2013-03-25 12:11:00,
2013-03-25 08:16:00,52.2,28.5,29.74,SW,231,4.0,6.3,40,0.00,,---,0.00,VWS V14.01,2013-03-25 12:16:00,
2013-03-25 08:21:00,52.2,29.2,29.74,NW,313,2.7,3.6,41,0.00,,---,0.00,VWS V14.01,2013-03-25 12:21:00,
2013-03-25 08:26:00,52.0,29.0,29.74,NW,311,5.4,5.8,41,0.00,,---,0.00,VWS V14.01,2013-03-25 12:26:00,
2013-03-25 08:31:00,52.0,28.4,29.77,NW,321,10.5,10.5,40,0.00,,---,0.00,VWS V14.01,2013-03-25 12:31:00,
2013-03-25 08:36:00,51.8,28.2,29.77,West,275,6.3,7.6,40,0.00,,---,0.00,VWS V14.01,2013-03-25 12:36:00,
2013-03-25 08:41:00,51.6,26.7,29.77,NNW,334,8.1,8.1,38,0.00,,---,0.00,VWS V14.01,2013-03-25 12:41:00,
2013-03-25 08:46:00,51.4,23.7,29.77,NNW,327,5.4,8.7,34,0.00,,---,0.00,VWS V14.01,2013-03-25 12:46:00,
2013-03-25 08:51:00,51.4,23.7,29.77,NW,315,6.3,8.3,34,0.00,,---,0.00,VWS V14.01,2013-03-25 12:51:00,
2013-03-25 08:56:00,51.4,23.7,29.77,WNW,301,4.0,6.3,34,0.00,,---,0.00,VWS V14.01,2013-03-25 12:56:00,
2013-03-25 09:02:00,51.4,22.2,29.77,WNW,300,8.1,10.5,31,0.00,,---,0.00,VWS V14.01,2013-03-25 13:02:00,
2013-03-25 09:07:00,51.4,23.0,29.77,SSE,150,2.7,5.4,33,0.00,,---,0.00,VWS V14.01,2013-03-25 13:07:00,
2013-03-25 09:12:00,52.0,21.9,29.77,West,278,8.1,8.7,30,0.00,,---,0.00,VWS V14.01,2013-03-25 13:12:00,
2013-03-25 09:17:00,52.5,22.4,29.80,NNE,24,4.9,6.3,30,0.00,,---,0.00,VWS V14.01,2013-03-25 13:17:00,
2013-03-25 09:22:00,54.3,23.1,29.80,West,276,7.6,7.6,29,0.00,,---,0.00,VWS V14.01,2013-03-25 13:22:00,
2013-03-25 09:27:00,54.5,22.4,29.80,WNW,293,3.6,3.6,28,0.00,,---,0.00,VWS V14.01,2013-03-25 13:27:00,
2013-03-25 09:32:00,55.2,23.0,29.80,NW,308,4.0,4.0,28,0.00,,---,0.00,VWS V14.01,2013-03-25 13:32:00,
2013-03-25 09:37:00,55.8,23.5,29.80,NNW,337,5.8,6.3,28,0.00,,---,0.00,VWS V14.01,2013-03-25 13:37:00,
2013-03-25 09:42:00,55.8,23.5,29.80,NNW,342,8.3,8.3,28,0.00,,---,0.00,VWS V14.01,2013-03-25 13:42:00,
2013-03-25 09:47:00,55.9,22.7,29.80,SSW,201,5.8,5.8,27,0.00,,---,0.00,VWS V14.01,2013-03-25 13:47:00,
2013-03-25 09:52:00,56.7,23.3,29.80,West,269,8.1,8.1,27,0.00,,---,0.00,VWS V14.01,2013-03-25 13:52:00,
2013-03-25 09:57:00,56.3,23.0,29.80,NW,307,4.0,5.8,27,0.00,,---,0.00,VWS V14.01,2013-03-25 13:57:00,
2013-03-25 10:02:00,55.2,22.1,29.80,NW,318,3.6,4.0,27,0.00,,---,0.00,VWS V14.01,2013-03-25 14:02:00,
2013-03-25 10:07:00,54.9,21.8,29.80,WSW,256,3.6,3.6,27,0.00,,---,0.00,VWS V14.01,2013-03-25 14:07:00,
2013-03-25 10:12:00,54.7,21.6,29.80,West,271,3.6,4.0,27,0.00,,---,0.00,VWS V14.01,2013-03-25 14:12:00,
2013-03-25 10:17:00,55.4,21.3,29.80,SSW,213,7.6,7.6,26,0.00,,---,0.00,VWS V14.01,2013-03-25 14:17:00,
2013-03-25 10:22:00,55.6,21.5,29.80,WNW,296,2.7,2.7,26,0.00,,---,0.00,VWS V14.01,2013-03-25 14:22:00,
2013-03-25 10:27:00,55.8,21.6,29.80,WNW,303,8.1,8.1,26,0.00,,---,0.00,VWS V14.01,2013-03-25 14:27:00,
2013-03-25 10:32:00,55.9,21.8,29.80,WNW,292,8.1,8.1,26,0.00,,---,0.00,VWS V14.01,2013-03-25 14:32:00,
2013-03-25 10:37:00,55.6,21.5,29.80,NW,311,6.7,6.7,26,0.00,,---,0.00,VWS V14.01,2013-03-25 14:37:00,
2013-03-25 10:42:00,55.8,21.6,29.80,WNW,299,7.6,7.6,26,0.00,,---,0.00,VWS V14.01,2013-03-25 14:42:00,
2013-03-25 10:47:00,55.9,21.8,29.80,WNW,300,8.3,8.3,26,0.00,,---,0.00,VWS V14.01,2013-03-25 14:47:00,
2013-03-25 10:52:00,56.3,22.1,29.80,NW,317,2.7,4.0,26,0.00,,---,0.00,VWS V14.01,2013-03-25 14:52:00,
2013-03-25 10:57:00,57.2,22.9,29.80,WNW,296,4.0,5.8,26,0.00,,---,0.00,VWS V14.01,2013-03-25 14:57:00,
2013-03-25 11:02:00,57.9,22.5,29.80,WNW,283,4.9,4.9,25,0.00,,---,0.00,VWS V14.01,2013-03-25 15:02:00,
2013-03-25 11:08:00,57.9,22.5,29.80,WNW,301,7.6,7.6,25,0.00,,---,0.00,VWS V14.01,2013-03-25 15:08:00,
2013-03-25 11:13:00,57.9,20.5,29.80,NW,307,5.4,5.4,23,0.00,,---,0.00,VWS V14.01,2013-03-25 15:13:00,
2013-03-25 11:18:00,57.6,20.2,29.80,SSW,207,3.6,6.3,23,0.00,,---,0.00,VWS V14.01,2013-03-25 15:18:00,
2013-03-25 11:23:00,57.6,22.2,29.80,WNW,292,6.3,6.3,25,0.00,,---,0.00,VWS V14.01,2013-03-25 15:23:00,
2013-03-25 11:28:00,57.7,20.3,29.80,WNW,297,5.4,7.2,23,0.00,,---,0.00,VWS V14.01,2013-03-25 15:28:00,
2013-03-25 11:33:00,57.7,20.3,29.80,West,280,6.3,8.1,23,0.00,,---,0.00,VWS V14.01,2013-03-25 15:33:00,
2013-03-25 11:38:00,57.6,20.2,29.80,WSW,241,5.8,5.8,23,0.00,,---,0.00,VWS V14.01,2013-03-25 15:38:00,
2013-03-25 11:43:00,57.7,22.4,29.80,WSW,238,4.9,5.4,25,0.00,,---,0.00,VWS V14.01,2013-03-25 15:43:00,
2013-03-25 11:48:00,58.1,20.6,29.80,NW,306,3.6,7.2,23,0.00,,---,0.00,VWS V14.01,2013-03-25 15:48:00,
2013-03-25 11:53:00,58.8,21.2,29.80,WNW,286,5.4,5.4,23,0.00,,---,0.00,VWS V14.01,2013-03-25 15:53:00,
2013-03-25 11:58:00,60.3,19.0,29.80,WSW,237,2.7,7.6,20,0.00,,---,0.00,VWS V14.01,2013-03-25 15:58:00,
2013-03-25 12:03:00,59.9,18.7,29.80,WSW,251,2.7,11.0,20,0.00,,---,0.00,VWS V14.01,2013-03-25 16:03:00,
2013-03-25 12:08:00,59.5,18.4,29.80,WNW,292,4.0,6.3,20,0.00,,---,0.00,VWS V14.01,2013-03-25 16:08:00,
2013-03-25 12:13:00,60.1,18.9,29.80,West,267,12.3,12.8,20,0.00,,---,0.00,VWS V14.01,2013-03-25 16:13:00,
2013-03-25 12:18:00,60.4,19.1,29.80,WNW,301,4.0,5.8,20,0.00,,---,0.00,VWS V14.01,2013-03-25 16:18:00,
2013-03-25 12:23:00,61.9,20.3,29.80,NW,307,5.4,5.8,20,0.00,,---,0.00,VWS V14.01,2013-03-25 16:23:00,
2013-03-25 12:28:00,61.7,20.2,29.80,NW,306,3.1,3.6,20,0.00,,---,0.00,VWS V14.01,2013-03-25 16:28:00,
2013-03-25 12:33:00,62.8,19.8,29.80,NW,307,5.8,11.0,19,0.00,,---,0.00,VWS V14.01,2013-03-25 16:33:00,
2013-03-25 12:38:00,63.0,17.2,29.80,SW,235,4.0,4.9,17,0.00,,---,0.00,VWS V14.01,2013-03-25 16:38:00,
2013-03-25 12:43:00,63.1,17.4,29.80,WNW,294,0.0,5.4,17,0.00,,---,0.00,VWS V14.01,2013-03-25 16:43:00,
2013-03-25 12:48:00,64.0,18.1,29.80,NW,313,4.0,8.7,17,0.00,,---,0.00,VWS V14.01,2013-03-25 16:48:00,
2013-03-25 12:53:00,65.7,17.9,29.80,SE,126,4.0,8.1,16,0.00,,---,0.00,VWS V14.01,2013-03-25 16:53:00,
2013-03-25 12:58:00,66.0,18.2,29.80,WNW,300,4.0,7.6,16,0.00,,---,0.00,VWS V14.01,2013-03-25 16:58:00,
2013-03-25 13:03:00,65.7,17.9,29.80,WSW,257,2.2,3.1,16,0.00,,---,0.00,VWS V14.01,2013-03-25 17:03:00,
2013-03-25 13:08:00,67.1,19.1,29.80,WNW,284,7.2,7.2,16,0.00,,---,0.00,VWS V14.01,2013-03-25 17:08:00,
2013-03-25 13:13:00,65.8,18.1,29.80,SW,225,5.8,8.3,16,0.00,,---,0.00,VWS V14.01,2013-03-25 17:13:00,
2013-03-25 13:18:00,66.0,18.2,29.80,NNW,328,8.3,13.2,16,0.00,,---,0.00,VWS V14.01,2013-03-25 17:18:00,
2013-03-25 13:23:00,68.9,20.5,29.80,NW,310,5.4,7.6,16,0.00,,---,0.00,VWS V14.01,2013-03-25 17:23:00,
2013-03-25 13:28:00,70.9,20.5,29.80,WNW,298,8.3,8.3,15,0.00,,---,0.00,VWS V14.01,2013-03-25 17:28:00,
2013-03-25 13:33:00,71.8,21.2,29.77,SW,233,4.9,5.8,15,0.00,,---,0.00,VWS V14.01,2013-03-25 17:33:00,
2013-03-25 13:38:00,71.2,20.8,29.77,WNW,292,3.1,8.1,15,0.00,,---,0.00,VWS V14.01,2013-03-25 17:38:00,
2013-03-25 13:43:00,70.5,20.2,29.77,NNW,329,5.4,5.8,15,0.00,,---,0.00,VWS V14.01,2013-03-25 17:43:00,
2013-03-25 13:48:00,69.1,20.7,29.77,NW,314,4.0,12.3,16,0.00,,---,0.00,VWS V14.01,2013-03-25 17:48:00,
2013-03-25 13:53:00,70.5,20.2,29.77,West,270,3.6,3.6,15,0.00,,---,0.00,VWS V14.01,2013-03-25 17:53:00,
2013-03-25 13:58:00,72.3,21.6,29.77,NW,317,5.8,5.8,15,0.00,,---,0.00,VWS V14.01,2013-03-25 17:58:00,
2013-03-25 14:03:00,73.8,21.0,29.77,NNW,341,6.3,6.3,14,0.00,,---,0.00,VWS V14.01,2013-03-25 18:03:00,
2013-03-25 14:08:00,75.0,22.0,29.77,NNE,17,8.7,8.7,14,0.00,,---,0.00,VWS V14.01,2013-03-25 18:08:00,
2013-03-25 14:13:00,73.8,21.0,29.77,WNW,302,4.0,10.1,14,0.00,,---,0.00,VWS V14.01,2013-03-25 18:13:00,
2013-03-25 14:18:00,74.3,21.5,29.77,NNE,19,6.3,6.3,14,0.00,,---,0.00,VWS V14.01,2013-03-25 18:18:00,
2013-03-25 14:23:00,73.4,20.8,29.77,NNW,341,8.1,8.7,14,0.00,,---,0.00,VWS V14.01,2013-03-25 18:23:00,
2013-03-25 14:28:00,69.6,21.1,29.77,WNW,302,4.0,8.1,16,0.00,,---,0.00,VWS V14.01,2013-03-25 18:28:00,
2013-03-25 14:33:00,67.6,19.5,29.77,West,276,6.7,6.7,16,0.00,,---,0.00,VWS V14.01,2013-03-25 18:33:00,
2013-03-25 14:38:00,67.3,19.2,29.77,NW,310,5.4,5.4,16,0.00,,---,0.00,VWS V14.01,2013-03-25 18:38:00,
2013-03-25 14:43:00,67.6,19.5,29.77,WNW,286,6.3,6.3,16,0.00,,---,0.00,VWS V14.01,2013-03-25 18:43:00,
2013-03-25 14:48:00,67.6,19.5,29.74,WNW,298,3.1,3.1,16,0.00,,---,0.00,VWS V14.01,2013-03-25 18:48:00,
2013-03-25 14:53:00,67.5,19.4,29.74,WNW,298,2.7,2.7,16,0.00,,---,0.00,VWS V14.01,2013-03-25 18:53:00,
2013-03-25 14:58:00,67.3,19.2,29.74,WSW,256,3.6,3.6,16,0.00,,---,0.00,VWS V14.01,2013-03-25 18:58:00,
2013-03-25 15:03:00,66.6,18.6,29.74,WNW,284,5.4,5.8,16,0.00,,---,0.00,VWS V14.01,2013-03-25 19:03:00,
2013-03-25 15:08:00,66.4,18.5,29.74,WNW,296,4.0,4.0,16,0.00,,---,0.00,VWS V14.01,2013-03-25 19:08:00,
2013-03-25 15:13:00,66.2,18.4,29.74,SW,227,8.1,8.1,16,0.00,,---,0.00,VWS V14.01,2013-03-25 19:13:00,
2013-03-25 15:18:00,66.2,18.4,29.77,WNW,289,9.6,9.6,16,0.00,,---,0.00,VWS V14.01,2013-03-25 19:18:00,
2013-03-25 15:23:00,65.7,17.9,29.77,West,267,3.6,6.7,16,0.00,,---,0.00,VWS V14.01,2013-03-25 19:23:00,
2013-03-25 15:28:00,65.8,18.1,29.77,WSW,256,3.6,3.6,16,0.00,,---,0.00,VWS V14.01,2013-03-25 19:28:00,
2013-03-25 15:33:00,66.2,18.4,29.74,SW,235,8.1,8.1,16,0.00,,---,0.00,VWS V14.01,2013-03-25 19:33:00,
2013-03-25 15:38:00,66.4,18.5,29.74,WNW,292,3.1,4.0,16,0.00,,---,0.00,VWS V14.01,2013-03-25 19:38:00,
2013-03-25 15:43:00,66.4,18.5,29.74,WSW,250,8.3,8.3,16,0.00,,---,0.00,VWS V14.01,2013-03-25 19:43:00,
2013-03-25 15:48:00,66.2,18.4,29.74,NW,311,3.1,3.1,16,0.00,,---,0.00,VWS V14.01,2013-03-25 19:48:00,
2013-03-25 15:53:00,66.2,18.4,29.74,NW,326,4.0,15.9,16,0.00,,---,0.00,VWS V14.01,2013-03-25 19:53:00,
2013-03-25 15:58:00,65.8,18.1,29.74,SW,218,11.9,11.9,16,0.00,,---,0.00,VWS V14.01,2013-03-25 19:58:00,
2013-03-25 16:03:00,65.7,17.9,29.74,WNW,293,8.3,10.5,16,0.00,,---,0.00,VWS V14.01,2013-03-25 20:03:00,
2013-03-25 16:08:00,65.7,17.9,29.74,NW,308,8.1,8.7,16,0.00,,---,0.00,VWS V14.01,2013-03-25 20:08:00,
2013-03-25 16:13:00,65.5,17.8,29.74,West,264,3.6,5.8,16,0.00,,---,0.00,VWS V14.01,2013-03-25 20:13:00,
2013-03-25 16:18:00,65.5,17.8,29.74,West,280,3.1,3.1,16,0.00,,---,0.00,VWS V14.01,2013-03-25 20:18:00,
2013-03-25 16:23:00,65.7,17.9,29.74,SW,228,5.4,8.1,16,0.00,,---,0.00,VWS V14.01,2013-03-25 20:23:00,
2013-03-25 16:28:00,65.1,17.5,29.74,SW,219,10.1,10.1,16,0.00,,---,0.00,VWS V14.01,2013-03-25 20:28:00,
2013-03-25 16:33:00,64.9,17.3,29.74,NW,310,8.3,8.3,16,0.00,,---,0.00,VWS V14.01,2013-03-25 20:33:00,
2013-03-25 16:38:00,65.1,17.5,29.74,SW,233,5.4,12.3,16,0.00,,---,0.00,VWS V14.01,2013-03-25 20:38:00,
2013-03-25 16:43:00,65.1,17.5,29.74,SW,227,7.6,10.5,16,0.00,,---,0.00,VWS V14.01,2013-03-25 20:43:00,
2013-03-25 16:48:00,64.8,17.2,29.74,West,273,6.3,6.3,16,0.00,,---,0.00,VWS V14.01,2013-03-25 20:48:00,
2013-03-25 16:53:00,64.6,17.0,29.74,South,179,5.8,5.8,16,0.00,,---,0.00,VWS V14.01,2013-03-25 20:53:00,
2013-03-25 16:58:00,64.6,17.0,29.74,West,273,4.0,11.0,16,0.00,,---,0.00,VWS V14.01,2013-03-25 20:58:00,
2013-03-25 17:03:00,64.6,17.0,29.74,West,259,3.6,8.7,16,0.00,,---,0.00,VWS V14.01,2013-03-25 21:03:00,
2013-03-25 17:08:00,64.4,16.9,29.74,West,276,4.0,4.0,16,0.00,,---,0.00,VWS V14.01,2013-03-25 21:08:00,
2013-03-25 17:13:00,64.6,17.0,29.74,West,262,10.5,10.5,16,0.00,,---,0.00,VWS V14.01,2013-03-25 21:13:00,
2013-03-25 17:18:00,64.6,17.0,29.74,WNW,300,8.3,8.3,16,0.00,,---,0.00,VWS V14.01,2013-03-25 21:18:00,
2013-03-25 17:23:00,64.4,16.9,29.74,WSW,242,8.7,8.7,16,0.00,,---,0.00,VWS V14.01,2013-03-25 21:23:00,
2013-03-25 17:28:00,64.2,18.2,29.74,WNW,297,5.4,5.4,17,0.00,,---,0.00,VWS V14.01,2013-03-25 21:28:00,
2013-03-25 17:33:00,64.2,18.2,29.74,WNW,283,4.9,4.9,17,0.00,,---,0.00,VWS V14.01,2013-03-25 21:33:00,
2013-03-25 17:38:00,64.2,18.2,29.74,West,275,3.1,5.8,17,0.00,,---,0.00,VWS V14.01,2013-03-25 21:38:00,
2013-03-25 17:43:00,64.0,18.1,29.74,WSW,240,6.3,6.3,17,0.00,,---,0.00,VWS V14.01,2013-03-25 21:43:00,
2013-03-25 17:48:00,63.9,18.0,29.74,WSW,250,8.3,8.7,17,0.00,,---,0.00,VWS V14.01,2013-03-25 21:48:00,
2013-03-25 17:53:00,63.5,17.7,29.74,WNW,288,5.8,8.1,17,0.00,,---,0.00,VWS V14.01,2013-03-25 21:53:00,
2013-03-25 17:58:00,63.3,17.5,29.74,WNW,292,5.8,10.5,17,0.00,,---,0.00,VWS V14.01,2013-03-25 21:58:00,
2013-03-25 18:03:00,63.1,17.4,29.74,NW,325,5.4,5.4,17,0.00,,---,0.00,VWS V14.01,2013-03-25 22:03:00,
2013-03-25 18:08:00,63.0,17.2,29.74,WNW,297,5.8,8.7,17,0.00,,---,0.00,VWS V14.01,2013-03-25 22:08:00,
2013-03-25 18:13:00,62.8,17.1,29.74,NNW,330,6.3,9.6,17,0.00,,---,0.00,VWS V14.01,2013-03-25 22:13:00,
2013-03-25 18:18:00,62.8,17.1,29.77,NW,319,7.6,7.6,17,0.00,,---,0.00,VWS V14.01,2013-03-25 22:18:00,
2013-03-25 18:23:00,62.6,16.9,29.77,NW,315,8.7,8.7,17,0.00,,---,0.00,VWS V14.01,2013-03-25 22:23:00,
2013-03-25 18:28:00,62.4,16.8,29.77,SW,230,3.6,5.4,17,0.00,,---,0.00,VWS V14.01,2013-03-25 22:28:00,
2013-03-25 18:33:00,62.2,16.6,29.77,West,261,11.4,11.4,17,0.00,,---,0.00,VWS V14.01,2013-03-25 22:33:00,
2013-03-25 18:38:00,62.1,16.5,29.77,WNW,284,6.7,8.1,17,0.00,,---,0.00,VWS V14.01,2013-03-25 22:38:00,
2013-03-25 18:43:00,61.9,16.3,29.77,West,262,0.0,3.1,17,0.00,,---,0.00,VWS V14.01,2013-03-25 22:43:00,
2013-03-25 18:48:00,61.7,16.2,29.77,NW,304,5.8,5.8,17,0.00,,---,0.00,VWS V14.01,2013-03-25 22:48:00,
2013-03-25 18:53:00,61.3,15.9,29.77,West,263,4.0,4.0,17,0.00,,---,0.00,VWS V14.01,2013-03-25 22:53:00,
2013-03-25 18:58:00,61.2,15.8,29.77,West,267,6.3,6.3,17,0.00,,---,0.00,VWS V14.01,2013-03-25 22:58:00,
2013-03-25 19:03:00,61.0,15.6,29.77,NW,319,3.1,3.6,17,0.00,,---,0.00,VWS V14.01,2013-03-25 23:03:00,
2013-03-25 19:08:00,60.6,16.7,29.77,NW,309,3.1,4.0,18,0.00,,---,0.00,VWS V14.01,2013-03-25 23:08:00,
2013-03-25 19:13:00,60.4,16.6,29.77,NW,315,3.6,3.6,18,0.00,,---,0.00,VWS V14.01,2013-03-25 23:13:00,
2013-03-25 19:18:00,60.3,16.4,29.80,WSW,257,4.0,4.9,18,0.00,,---,0.00,VWS V14.01,2013-03-25 23:18:00,
2013-03-25 19:23:00,60.1,16.3,29.80,West,273,0.0,0.0,18,0.00,,---,0.00,VWS V14.01,2013-03-25 23:23:00,
2013-03-25 19:28:00,59.7,16.0,29.80,NW,304,5.4,5.4,18,0.00,,---,0.00,VWS V14.01,2013-03-25 23:28:00,
2013-03-25 19:33:00,59.5,15.8,29.80,NW,317,8.3,8.3,18,0.00,,---,0.00,VWS V14.01,2013-03-25 23:33:00,
2013-03-25 19:38:00,59.4,15.7,29.80,WNW,282,2.7,8.7,18,0.00,,---,0.00,VWS V14.01,2013-03-25 23:38:00,
2013-03-25 19:43:00,59.0,15.4,29.80,NNW,346,5.4,5.4,18,0.00,,---,0.00,VWS V14.01,2013-03-25 23:43:00,
2013-03-25 19:48:00,58.6,15.1,29.83,NW,308,5.4,5.4,18,0.00,,---,0.00,VWS V14.01,2013-03-25 23:48:00,
2013-03-25 19:53:00,58.5,14.9,29.83,WNW,303,2.7,5.8,18,0.00,,---,0.00,VWS V14.01,2013-03-25 23:53:00,
2013-03-25 19:58:00,58.1,14.6,29.83,West,280,2.7,3.6,18,0.00,,---,0.00,VWS V14.01,2013-03-25 23:58:00,
2013-03-25 20:03:00,57.9,14.5,29.83,West,270,4.9,4.9,18,0.00,,---,0.00,VWS V14.01,2013-03-26 00:03:00,
2013-03-25 20:08:00,57.7,14.4,29.83,NW,316,0.0,0.0,18,0.00,,---,0.00,VWS V14.01,2013-03-26 00:08:00,
2013-03-25 20:13:00,57.4,14.1,29.83,NW,306,3.1,3.1,18,0.00,,---,0.00,VWS V14.01,2013-03-26 00:13:00,
2013-03-25 20:18:00,57.2,13.9,29.83,NW,305,0.0,0.0,18,0.00,,---,0.00,VWS V14.01,2013-03-26 00:18:00,
2013-03-25 20:23:00,57.0,13.8,29.83,NW,304,2.7,2.7,18,0.00,,---,0.00,VWS V14.01,2013-03-26 00:23:00,
2013-03-25 20:28:00,56.8,13.6,29.83,WNW,303,0.0,3.1,18,0.00,,---,0.00,VWS V14.01,2013-03-26 00:28:00,
2013-03-25 20:33:00,56.7,13.5,29.85,WNW,292,0.0,2.7,18,0.00,,---,0.00,VWS V14.01,2013-03-26 00:33:00,
2013-03-25 20:38:00,56.3,13.2,29.85,NW,304,2.2,3.1,18,0.00,,---,0.00,VWS V14.01,2013-03-26 00:38:00,
2013-03-25 20:43:00,56.3,13.2,29.85,WNW,291,0.0,0.0,18,0.00,,---,0.00,VWS V14.01,2013-03-26 00:43:00,
2013-03-25 20:48:00,56.1,13.0,29.85,West,281,0.0,3.1,18,0.00,,---,0.00,VWS V14.01,2013-03-26 00:48:00,
2013-03-25 20:53:00,55.8,12.7,29.85,West,272,0.0,2.7,18,0.00,,---,0.00,VWS V14.01,2013-03-26 00:53:00,
2013-03-25 20:58:00,55.6,12.6,29.85,West,272,0.0,0.0,18,0.00,,---,0.00,VWS V14.01,2013-03-26 00:58:00,
2013-03-25 21:03:00,55.2,16.0,29.85,WNW,283,0.0,2.7,21,0.00,,---,0.00,VWS V14.01,2013-03-26 01:03:00,
2013-03-25 21:08:00,55.0,13.4,29.85,WNW,293,0.0,2.7,19,0.00,,---,0.00,VWS V14.01,2013-03-26 01:08:00,
2013-03-25 21:14:00,55.2,13.6,29.85,NW,322,0.0,4.0,19,0.00,,---,0.00,VWS V14.01,2013-03-26 01:14:00,
2013-03-25 21:18:00,55.2,13.6,29.85,WNW,297,0.0,0.0,19,0.00,,---,0.00,VWS V14.01,2013-03-26 01:18:00,
2013-03-25 21:23:00,54.9,13.3,29.85,West,261,2.2,2.2,19,0.00,,---,0.00,VWS V14.01,2013-03-26 01:23:00,
2013-03-25 21:29:00,54.7,15.5,29.85,NW,310,2.2,4.0,21,0.00,,---,0.00,VWS V14.01,2013-03-26 01:29:00,
2013-03-25 21:34:00,54.7,13.1,29.85,NW,317,0.0,2.7,19,0.00,,---,0.00,VWS V14.01,2013-03-26 01:34:00,
2013-03-25 21:39:00,54.5,15.4,29.85,WNW,297,2.7,2.7,21,0.00,,---,0.00,VWS V14.01,2013-03-26 01:39:00,
2013-03-25 21:44:00,54.3,15.2,29.85,NE,39,0.0,0.0,21,0.00,,---,0.00,VWS V14.01,2013-03-26 01:44:00,
2013-03-25 21:49:00,54.3,15.2,29.88,WNW,291,0.0,3.1,21,0.00,,---,0.00,VWS V14.01,2013-03-26 01:49:00,
2013-03-25 21:54:00,54.0,12.5,29.88,NW,308,0.0,0.0,19,0.00,,---,0.00,VWS V14.01,2013-03-26 01:54:00,
2013-03-25 21:59:00,53.8,14.8,29.88,NW,314,0.0,0.0,21,0.00,,---,0.00,VWS V14.01,2013-03-26 01:59:00,
2013-03-25 22:04:00,53.4,15.6,29.88,NNW,328,0.0,2.2,22,0.00,,---,0.00,VWS V14.01,2013-03-26 02:04:00,
2013-03-25 22:09:00,53.2,15.4,29.88,NNW,328,0.0,0.0,22,0.00,,---,0.00,VWS V14.01,2013-03-26 02:09:00,
2013-03-25 22:14:00,53.2,15.4,29.88,WNW,297,0.0,2.7,22,0.00,,---,0.00,VWS V14.01,2013-03-26 02:14:00,
2013-03-25 22:19:00,53.2,15.4,29.88,West,280,0.0,0.0,22,0.00,,---,0.00,VWS V14.01,2013-03-26 02:19:00,
2013-03-25 22:24:00,53.1,15.3,29.88,West,280,0.0,0.0,22,0.00,,---,0.00,VWS V14.01,2013-03-26 02:24:00,
2013-03-25 22:29:00,53.1,15.3,29.88,West,270,0.0,0.0,22,0.00,,---,0.00,VWS V14.01,2013-03-26 02:29:00,
2013-03-25 22:34:00,52.7,15.0,29.88,West,279,0.0,3.6,22,0.00,,---,0.00,VWS V14.01,2013-03-26 02:34:00,
2013-03-25 22:39:00,52.5,16.9,29.88,WNW,293,0.0,0.0,24,0.00,,---,0.00,VWS V14.01,2013-03-26 02:39:00,
2013-03-25 22:43:00,52.2,16.6,29.88,WSW,254,0.0,0.0,24,0.00,,---,0.00,VWS V14.01,2013-03-26 02:43:00,
2013-03-25 22:48:00,52.0,16.5,29.91,NW,305,3.1,3.1,24,0.00,,---,0.00,VWS V14.01,2013-03-26 02:48:00,
2013-03-25 22:53:00,51.8,19.2,29.91,NW,304,0.0,0.0,27,0.00,,---,0.00,VWS V14.01,2013-03-26 02:53:00,
2013-03-25 22:58:00,51.6,19.0,29.91,WNW,300,0.0,3.1,27,0.00,,---,0.00,VWS V14.01,2013-03-26 02:58:00,
2013-03-25 23:03:00,52.0,16.5,29.91,NW,306,3.6,4.9,24,0.00,,---,0.00,VWS V14.01,2013-03-26 03:03:00,
2013-03-25 23:08:00,52.2,16.6,29.91,West,267,2.2,4.9,24,0.00,,---,0.00,VWS V14.01,2013-03-26 03:08:00,
2013-03-25 23:13:00,52.2,16.6,29.91,NW,304,3.1,3.6,24,0.00,,---,0.00,VWS V14.01,2013-03-26 03:13:00,
2013-03-25 23:19:00,52.3,14.7,29.91,NNW,335,0.0,2.7,22,0.00,,---,0.00,VWS V14.01,2013-03-26 03:19:00,
2013-03-25 23:24:00,52.2,14.5,29.91,West,278,3.1,6.3,22,0.00,,---,0.00,VWS V14.01,2013-03-26 03:24:00,
2013-03-25 23:29:00,52.0,16.5,29.91,WNW,294,3.1,5.4,24,0.00,,---,0.00,VWS V14.01,2013-03-26 03:29:00,
2013-03-25 23:34:00,52.0,14.4,29.91,NNW,327,5.4,5.4,22,0.00,,---,0.00,VWS V14.01,2013-03-26 03:34:00,
2013-03-25 23:39:00,51.8,14.2,29.91,WNW,296,2.7,3.6,22,0.00,,---,0.00,VWS V14.01,2013-03-26 03:39:00,
2013-03-25 23:44:00,51.6,14.1,29.91,WNW,301,2.2,2.7,22,0.00,,---,0.00,VWS V14.01,2013-03-26 03:44:00,
2013-03-25 23:49:00,51.6,14.1,29.94,WSW,245,0.0,3.1,22,0.00,,---,0.00,VWS V14.01,2013-03-26 03:49:00,
2013-03-25 23:54:00,51.4,13.9,29.94,West,269,5.4,5.4,22,0.00,,---,0.00,VWS V14.01,2013-03-26 03:54:00,
2013-03-25 23:59:00,51.3,13.8,29.94,WNW,302,0.0,2.7,22,0.00,,---,0.00,VWS V14.01,2013-03-26 03:59:00,